Location: Göttingen
(51.5413°N, 9.9158°E)
Time: 07:11:04
(UTC+02:00)

EO-88 - Pass Details

Date: 07 July 2022
Orbit: 454 x 462 km, 97.3° (Epoch: 07 August)

Event Time Altitude Azimuth Distance (km) Brightness Sun altitude
Exits shadow 22:16:54 - 152° (SSE) 1,948 ? -5.2°
Reaches altitude 10° 22:17:41 10° 150° (SSE) 1,621 ? -5.3°
Maximum altitude 22:21:06 55° 73° (ENE) 569 ? -5.7°
Drops below altitude 10° 22:24:31 10° 355° (N) 1,629 ? -6.0°
Sets 22:26:36 0° 351° (N) 2,508 ? -6.2°
